1324166426670,163.716
1324166486670,163.611
1324166546670,163.302
1324166606670,163.519
1324166666670,163.590
1324166726670,163.188
1324166786670,163.149
1324166846670,163.206
1324166906670,163.479
1324166966670,163.221
1324167026670,163.296
1324167086670,163.176
1324167146670,163.313
1324167206670,163.216
1324167266670,163.359
1324167326670,163.528
1324167386670,163.308
1324167446670,163.206
1324167506670,163.171
1324167566670,163.112
1324167626670,163.075
1324167686670,163.174
1324167746670,163.281
1324167806670,163.137
1324167866670,163.129
1324167926670,163.180
1324167986670,163.389
1324168046670,163.274
1324168106670,163.641
1324168166670,163.385
1324168226670,163.680
1324168286670,163.329
1324168346670,163.638
1324168406670,163.505
1324168466670,163.691
1324168526670,163.558
1324168586670,163.860
1324168646670,163.779
1324168706670,163.829
1324168766670,163.777
1324168826670,163.724
1324168886670,164.115
1324168946670,163.614
1324169006670,163.635
1324169066670,163.535
1324169126670,164.018
1324169186670,163.825
1324169246670,163.714
1324169306670,163.860
1324169366670,163.910
1324169426670,163.919
1324169486670,163.759
1324169546670,163.758
1324169606670,163.886
1324169666670,163.869
1324169726670,163.872
1324169786670,164.032
1324169846670,163.831
1324169906670,163.766
1324169966670,163.887
1324170026681,163.775
1324170086681,163.775
1324170146681,164.102
1324170206681,164.008
1324170266681,163.883
1324170326681,164.039
1324170386681,164.026
1324170446681,163.965
1324170506681,163.553
1324170566681,164.182
1324170626681,164.065
1324170686681,164.324
1324170746681,164.036
1324170806681,163.942
1324170866681,163.648
1324170926681,163.677
1324170986681,164.057
1324171046681,163.817
1324171106681,164.138
1324171166681,164.158
1324171226681,164.255
1324171286681,164.130
1324171346681,164.337
1324171406681,164.287
1324171466681,164.313
1324171526681,164.348
1324171586681,164.325
1324171646681,164.318
1324171706681,164.460
1324171766681,164.572
1324171826681,164.259
1324171886681,164.256
1324171946681,164.870
1324172006681,164.520
1324172066681,164.665
1324172126681,164.541
1324172186681,164.547
1324172246681,164.577
1324172306681,164.556
1324172366681,164.926
1324172426681,164.796
1324172486681,164.726
1324172546681,164.624
1324172606681,164.669
1324172666681,164.198
1324172726681,164.816
1324172786681,164.572
1324172846681,164.646
1324172906681,164.253
1324172966681,164.314
1324173026681,164.187
1324173086681,164.266
1324173146681,164.121
1324173206681,164.210
1324173266681,164.186
1324173326681,164.191
1324173386681,163.966
1324173446681,164.167
1324173506681,164.156
1324173566681,164.150
1324173626692,164.032
1324173686692,164.113
1324173746692,164.292
1324173806692,164.206
1324173866692,164.743
1324173926692,164.459
1324173986692,164.563
1324174046692,164.537
1324174106692,164.648
1324174166692,164.368
1324174226692,164.268
1324174286692,164.174
1324174346692,164.187
1324174406692,164.309
1324174466692,164.036
1324174526692,163.856
1324174586692,164.189
1324174646692,164.196
1324174706692,164.357
1324174766692,164.022
1324174826692,163.992
1324174886692,164.120
1324174946692,163.992
1324175006692,164.351
1324175066692,164.144
1324175126692,164.030
1324175186692,163.893
1324175246692,164.326
1324175306692,163.972
1324175366692,164.179
1324175426692,164.271
1324175486692,164.208
1324175546692,164.312
1324175606692,164.306
1324175666692,164.197
1324175726692,163.632
1324175786692,164.004
1324175846692,164.316
1324175906692,163.871
1324175966692,163.978
1324176026692,164.065
1324176086692,163.737
1324176146692,164.054
1324176206692,164.156
1324176266692,164.014
1324176326692,163.776
1324176386692,163.893
1324176446692,164.097
1324176506692,164.144
1324176566692,163.672
1324176626692,164.212
1324176686692,164.304
1324176746692,164.424
1324176806692,164.125
1324176866692,164.137
1324176926692,164.046
1324176986692,164.160
1324177046692,164.288
1324177106692,164.105
1324177166692,164.323
1324177226702,164.171
1324177286702,164.296
1324177346702,164.046
1324177406702,164.173
1324177466702,164.316
1324177526702,164.032
1324177586702,163.826
1324177646702,163.963
1324177706702,164.545
1324177766702,164.249
1324177826702,164.190
1324177886702,164.217
1324177946702,164.248
1324178006702,164.045
1324178066702,164.150
1324178126702,163.980
1324178186702,163.936
1324178246702,164.276
1324178306702,164.116
1324178366702,164.046
1324178426702,164.085
1324178486702,164.090
1324178546702,164.231
1324178606702,164.217
1324178666702,164.000
1324178726702,164.332
1324178786702,164.070
1324178846702,163.709
1324178906702,164.009
1324178966702,164.297
1324179026702,164.003
1324179086702,164.211
1324179146702,163.853
1324179206702,164.300
1324179266702,164.224
1324179326702,164.309
1324179386702,164.268
1324179446702,163.959
1324179506702,163.806
1324179566702,164.174
1324179626702,164.152
1324179686702,163.749
1324179746702,164.076
1324179806702,164.053
1324179866702,164.271
1324179926702,164.017
1324179986702,164.107
1324180046702,163.924
1324180106702,163.895
1324180166702,164.285
1324180226702,164.033
1324180286702,164.060
1324180346702,163.715
1324180406702,164.259
1324180466702,164.142
1324180526702,163.934
1324180586702,163.903
1324180646702,164.145
1324180706702,164.068
1324180766702,164.022
1324180826713,164.252
1324180886713,163.769
1324180946713,164.220
1324181006713,164.025
1324181066713,164.040
1324181126713,163.976
1324181186713,163.870
1324181246713,163.977
1324181306713,163.756
1324181366713,163.737
1324181426713,163.910
1324181486713,164.109
1324181546713,163.599
1324181606713,163.897
1324181666713,163.795
1324181726713,163.727
1324181786713,163.745
1324181846713,163.991
1324181906713,164.007
1324181966713,163.587
1324182026713,163.972
1324182086713,163.986
1324182146713,163.844
1324182206713,163.707
1324182266713,163.756
1324182326713,163.836
1324182386713,163.801
1324182446713,163.744
1324182506713,163.658
1324182566713,163.663
1324182626713,163.800
1324182686713,163.676
1324182746713,163.829
1324182806713,163.907
1324182866713,163.407
1324182926713,163.459
1324182986713,163.480
1324183046713,163.643
1324183106713,163.576
1324183166713,163.516
1324183226713,163.619
1324183286713,163.394
1324183346713,163.433
1324183406713,163.231
1324183466713,163.425
1324183526713,163.737
1324183586713,163.406
1324183646713,163.759
1324183706713,163.539
1324183766713,163.629
1324183826713,163.879
1324183886713,163.664
1324183946713,163.476
1324184006713,163.182
1324184066713,163.586
1324184126713,163.549
1324184186713,163.498
1324184246713,163.599
1324184306713,163.412
1324184366713,163.673
1324184426724,164.041
1324184486724,163.562
1324184546724,163.906
1324184606724,163.711
1324184666724,163.789
1324184726724,163.397
1324184786724,163.920
1324184846724,163.935
1324184906724,163.504
1324184966724,163.738
1324185026724,163.655
1324185086724,163.590
1324185146724,163.697
1324185206724,163.671
1324185266724,163.853
1324185326724,163.626
1324185386724,163.545
1324185446724,163.785
1324185506724,163.725
1324185566724,163.691
1324185626724,164.020
1324185686724,163.930
1324185746724,163.500
1324185806724,163.450
1324185866724,163.459
1324185926724,163.765
1324185986724,163.801
1324186046724,163.949
1324186106724,163.674
1324186166724,163.883
1324186226724,163.878
1324186286723,163.524
1324186346724,163.794
1324186406724,163.960
1324186466724,163.944
1324186526724,163.600
1324186586724,163.804
1324186646724,163.723
1324186706724,163.663
1324186766724,163.573
1324186826724,163.721
1324186886724,163.988
1324186946724,163.470
1324187006724,163.788
1324187066724,163.871
1324187126724,163.643
1324187186724,163.722
1324187246724,163.279
1324187306724,163.705
1324187366724,163.917
1324187426724,163.445
1324187486724,163.515
1324187546724,163.644
1324187606724,163.728
1324187666724,163.651
1324187726724,163.827
1324187786724,164.040
1324187846724,163.793
1324187906724,163.988
1324187966724,163.800
1324188026734,163.715
1324188086734,163.859
1324188146734,163.626
1324188206734,163.815
1324188266734,163.645
1324188326734,163.668
1324188386734,163.702
1324188446734,163.437
1324188506734,163.849
1324188566734,163.901
1324188626734,163.816
1324188686734,163.952
1324188746734,163.887
1324188806734,163.986
1324188866734,163.593
1324188926734,163.924
1324188986734,163.700
1324189046734,164.069
1324189106734,163.848
1324189166735,163.523
1324189226735,163.728
1324189286735,163.779
1324189346735,163.336
1324189406734,163.853
1324189466734,163.870
1324189526734,163.670
1324189586734,163.774
1324189646734,163.802
1324189706734,163.461
1324189766734,163.571
1324189826734,163.853
1324189886734,163.746
1324189946734,163.830
1324190006734,163.596
1324190066734,163.496
1324190126734,163.512
1324190186734,163.601
1324190246734,163.589
1324190306734,163.766
1324190366734,163.769
1324190426734,163.634
1324190486734,163.855
1324190546735,163.360
1324190606735,163.817
1324190666735,163.739
1324190726734,164.110
1324190786734,163.771
1324190846734,163.609
1324190906734,163.531
1324190966734,163.449
1324191026734,163.935
1324191086734,164.000
1324191146734,163.805
1324191206734,163.721
1324191266734,164.004
1324191326734,163.910
1324191386734,163.782
1324191446734,163.881
1324191506734,163.736
1324191566734,163.653
1324191626746,163.738
1324191686746,164.014
1324191746746,163.504
1324191806746,164.077
1324191866746,164.160
1324191926746,163.581
1324191986746,163.946
1324192046746,163.834
1324192106746,163.855
1324192166746,163.947
1324192226746,163.911
1324192286746,163.714
1324192346746,163.779
1324192406746,163.975
1324192466746,163.926
1324192526746,164.008
1324192586746,163.827
1324192646746,164.085
1324192706746,164.161
1324192766746,163.834
1324192826746,163.846
1324192886746,164.174
1324192946746,163.792
1324193006746,163.840
1324193066746,163.805
1324193126746,163.895
1324193186746,163.864
1324193246746,163.681
1324193306746,163.385
1324193366746,163.958
1324193426746,164.067
1324193486746,163.679
1324193546746,163.939
1324193606746,163.827
1324193666746,163.766
1324193726746,164.067
1324193786746,163.792
1324193846746,163.867
1324193906746,164.003
1324193966746,163.890
1324194026746,163.591
1324194086746,163.625
1324194146746,163.786
1324194206746,163.931
1324194266746,163.537
1324194326746,164.088
1324194386746,163.923
1324194446746,163.598
1324194506746,163.785
1324194566746,163.798
1324194626746,164.109
1324194686746,163.458
1324194746746,163.598
1324194806746,163.365
1324194866746,163.519
1324194926746,163.228
1324194986746,163.262
1324195046746,163.477
1324195106746,163.365
1324195166746,163.232
1324195226757,163.296
1324195286757,163.039
1324195346757,163.312
1324195406757,163.476
1324195466757,163.079
1324195526757,162.984
1324195586757,162.958
1324195646757,162.935
1324195706757,163.081
1324195766757,162.590
1324195826757,162.616
1324195886757,162.746
1324195946757,162.983
1324196006757,162.847
1324196066757,162.895
1324196126757,162.928
1324196186757,162.856
1324196246757,162.934
1324196306757,163.070
1324196366757,163.193
1324196426757,162.853
1324196486757,162.952
1324196546757,162.500
1324196606757,162.918
1324196666757,162.786
1324196726757,162.569
1324196786757,162.763
1324196846757,163.040
1324196906757,162.872
1324196966757,162.924
1324197026757,163.263
1324197086757,163.146
1324197146757,163.054
1324197206757,162.939
1324197266757,162.626
1324197326757,162.711
1324197386757,162.540
1324197446757,162.801
1324197506757,162.526
1324197566757,162.967
1324197626757,162.737
1324197686757,162.823
1324197746757,162.670
1324197806757,162.569
1324197866757,162.583
1324197926757,162.685
1324197986757,162.744
1324198046757,162.815
1324198106757,162.565
1324198166757,162.918
1324198226757,162.572
1324198286757,162.843
1324198346757,162.553
1324198406757,162.698
1324198466757,162.776
1324198526757,162.555
1324198586757,162.841
1324198646757,162.767
1324198706757,162.726
1324198766757,163.001
1324198826769,162.650
1324198886769,162.804
1324198946769,162.697
1324199006769,162.436
1324199066769,162.667
1324199126769,162.831
1324199186769,162.519
1324199246769,162.709
1324199306769,162.840
1324199366769,162.954
1324199426769,163.078
1324199486769,162.749
1324199546769,163.337
1324199606769,162.891
1324199666769,162.917
1324199726769,162.850
1324199786769,162.851
1324199846769,163.089
1324199906769,162.973
1324199966769,162.974
1324200026769,163.280
1324200086769,163.175
1324200146769,163.106
1324200206769,163.244
1324200266769,163.031
1324200326769,163.314
1324200386769,163.388
1324200446769,163.688
1324200506769,163.061
1324200566769,163.314
1324200626769,163.266
1324200686769,163.418
1324200746769,163.544
1324200806769,163.234
1324200866769,163.503
1324200926769,163.511
1324200986769,163.519
1324201046769,163.776
1324201106769,163.093
1324201166769,163.490
1324201226769,163.461
1324201286769,163.614
1324201346769,163.827
1324201406769,163.329
1324201466769,164.153
1324201526769,163.589
1324201586769,163.612
1324201646769,163.653
1324201706769,163.467
1324201766769,163.451
1324201826769,163.758
1324201886769,163.415
1324201946769,163.782
1324202006769,163.812
1324202066769,163.922
1324202126769,163.720
1324202186769,163.518
1324202246769,163.864
1324202306769,163.771
1324202366769,164.102
1324202426781,163.873
1324202486781,164.035
1324202546781,163.874
1324202606781,163.833
1324202666781,164.195
1324202726781,163.698
1324202786781,164.053
1324202846781,163.889
1324202906781,164.070
1324202966781,164.021
1324203026781,164.003
1324203086781,164.110
1324203146781,164.448
1324203206781,164.195
1324203266781,164.091
1324203326781,164.087
1324203386781,164.369
1324203446781,164.392
1324203506781,164.039
1324203566781,164.203
1324203626781,164.416
1324203686781,163.796
1324203746781,164.330
1324203806781,164.681
1324203866781,164.219
1324203926781,164.393
1324203986781,164.717
1324204046781,164.490
1324204106781,164.647
1324204166781,164.494
1324204226781,164.337
1324204286781,164.792
1324204346781,164.711
1324204406781,164.307
1324204466781,164.451
1324204526781,164.424
1324204586781,164.893
1324204646781,164.865
1324204706781,164.873
1324204766781,164.539
1324204826781,165.006
1324204886781,164.637
1324204946781,164.930
1324205006781,164.800
1324205066781,165.064
1324205126781,164.602
1324205186781,164.873
1324205246781,164.816
1324205306781,164.924
1324205366781,164.757
1324205426781,164.795
1324205486781,164.707
1324205546781,164.983
1324205606781,164.471
1324205666781,164.883
1324205726781,165.264
1324205786781,164.885
1324205846781,164.785
1324205906781,164.992
1324205966781,164.740
1324206026793,164.892
1324206086793,165.094
1324206146793,165.062
1324206206793,165.276
1324206266793,164.935
1324206326793,165.033
1324206386793,164.998
1324206446793,165.197
1324206506793,165.351
1324206566793,164.951
1324206626793,165.275
1324206686793,165.408
1324206746793,165.205
1324206806793,164.937
1324206866793,165.451
1324206926793,165.669
1324206986793,165.373
1324207046793,165.443
1324207106793,165.872
1324207166793,165.444
1324207226793,165.585
1324207286793,165.654
1324207346793,165.440
1324207406793,165.511
1324207466793,165.545
1324207526793,165.341
1324207586793,165.806
1324207646793,165.521
1324207706793,165.708
1324207766793,165.323
1324207826793,165.688
1324207886793,165.846
1324207946793,165.655
1324208006793,165.504
1324208066793,165.769
1324208126793,166.045
1324208186793,166.164
1324208246793,165.845
1324208306793,165.746
1324208366793,165.869
1324208426793,166.560
1324208486793,166.279
1324208546793,166.138
1324208606793,166.344
1324208666793,166.036
1324208726793,166.244
1324208786793,166.106
1324208846793,166.033
1324208906793,166.137
1324208966793,166.222
1324209026793,166.343
1324209086793,166.206
1324209146793,166.267
1324209206793,166.121
1324209266793,165.941
1324209326793,166.137
1324209386793,166.009
1324209446793,166.073
1324209506793,166.093
1324209566793,166.080
1324209626805,166.150
1324209686805,166.236
1324209746805,166.391
1324209806805,166.679
1324209866805,166.325
1324209926805,166.234
1324209986805,166.705
1324210046805,166.271
1324210106805,166.156
1324210166805,166.148
1324210226805,166.328
1324210286805,166.595
1324210346805,166.563
1324210406805,166.298
1324210466805,166.443
1324210526805,166.210
1324210586805,166.160
1324210646805,166.403
1324210706805,166.611
1324210766805,166.303
1324210826805,166.106
1324210886805,166.171
1324210946805,165.935
1324211006805,166.045
1324211066805,165.996
1324211126805,166.067
1324211186805,166.276
1324211246805,166.525
1324211306805,166.356
1324211366805,165.981
1324211426805,166.046
1324211486805,166.618
1324211546805,166.122
1324211606805,166.177
1324211666805,166.264
1324211726805,166.138
1324211786805,166.124
1324211846805,166.041
1324211906805,166.087
1324211966805,166.010
1324212026805,165.915
1324212086805,166.175
1324212146805,165.867
1324212206805,165.636
1324212266805,166.056
1324212326805,166.045
1324212386805,165.734
1324212446805,166.013
1324212506805,166.245
1324212566805,165.843
1324212626805,165.957
1324212686805,165.565
1324212746805,165.386
1324212806805,165.740
1324212866805,165.404
1324212926805,165.244
1324212986805,165.633
1324213046805,165.479
1324213106805,165.553
1324213166805,165.181
1324213226817,165.528
1324213286817,165.341
1324213346817,165.475
1324213406817,165.267
1324213466817,165.565
1324213526817,165.276
1324213586817,165.407
1324213646817,165.428
1324213706817,165.229
1324213766817,165.114
1324213826817,165.406
1324213886817,165.343
1324213946817,165.662
1324214006817,165.478
1324214066817,165.341
1324214126817,165.349
1324214186817,165.213
1324214246817,165.696
1324214306817,165.055
1324214366817,165.324
1324214426817,164.972
1324214486817,164.945
1324214546817,165.401
1324214606817,165.619
1324215746817,164.591
1324215806817,165.214
1324215866817,164.596
1324215926817,164.768
1324215986817,164.753
1324216046817,164.595
1324216106817,164.945
1324216166817,164.549
1324216226817,164.606
1324216286817,164.768
1324216346817,164.467
1324216406817,164.679
1324216466817,164.661
1324216526817,164.643
1324216586817,164.572
1324216646817,164.687
1324216706817,164.722
1324216766817,164.588
1324216826829,164.902
1324216886829,164.870
1324216946829,165.010
1324217006829,164.593
1324217066829,164.503
1324217126829,164.433
1324217186829,164.743
1324217246829,164.545
1324217306829,164.428
1324217366829,164.801
1324217426829,164.543
1324217486829,164.610
1324217546829,164.634
1324217606829,164.322
1324217666829,164.669
1324217726829,164.659
1324217786829,164.356
1324217846829,164.397
1324217906829,164.521
1324217966829,164.592
1324218026829,164.424
1324218086829,164.703
1324218146829,164.551
1324218206829,164.624
1324218266829,164.542
1324218326829,164.837
1324218386829,164.598
1324218446829,164.352
1324218506829,164.781
1324218566829,164.498
1324218626829,164.457
1324218686829,164.461
1324218746829,164.801
1324218806829,164.683
1324218866829,164.739
1324218926829,164.760
1324218986829,164.527
1324219046829,164.619
1324219106829,164.554
1324219166829,164.457
1324219226829,164.348
1324219286829,164.531
1324219346829,164.756
1324219406829,164.391
1324219466829,164.209
1324219526829,164.491
1324219586829,164.655
1324219646829,164.534
1324219706829,164.528
1324219766829,164.508
1324219826829,164.252
1324219886829,164.231
1324219946829,164.271
1324220006829,164.584
1324220066829,164.397
1324220126829,164.480
1324220186829,164.356
1324220246829,164.408
1324220306829,164.268
1324220366829,164.307
1324220426842,164.098
1324220486842,164.355
1324220546842,164.245
1324220606842,163.929
1324220666842,164.065
1324220726842,164.236
1324220786842,164.154
1324220846842,164.048
1324220906842,164.037
1324220966842,163.930
1324221026842,164.075
1324221086842,164.272
1324221146842,164.442
1324221206842,164.109
1324221266842,164.050
1324221326842,163.927
1324221386842,163.899
1324221446842,164.170
1324221506842,163.985
1324221566842,164.452
1324221626842,163.922
1324221686842,163.785
1324221746842,163.995
1324221806842,164.488
1324221866842,164.498
1324221926842,164.463
1324221986842,164.198
1324222046842,164.157
1324222106842,164.349
1324222166842,164.548
1324222226842,164.321
1324222286842,164.294
1324222346842,163.833
1324222406842,164.076
1324222466842,164.192
1324222526842,163.861
1324222586842,164.443
1324222646842,164.206
1324222706842,164.239
1324222766842,164.221
1324222826842,164.268
1324222886842,163.911
1324222946842,163.926
1324223006842,163.832
1324223066842,164.052
1324223126842,164.134
1324223186842,164.334
1324223246842,164.348
1324223306842,164.338
1324223366842,164.246
1324223426842,164.131
1324223486842,164.197
1324223546842,164.237
1324223606842,164.226
1324223666842,164.067
1324223726842,164.397
1324223786842,164.470
1324223846842,164.408
1324223906842,164.212
1324223966842,164.392
1324224026854,164.507
1324224086854,164.539
1324224146854,164.393
1324224206854,164.706
1324224266854,164.231
1324224326854,164.350
1324224386854,164.266
1324224446854,164.113
1324224506854,164.300
1324224566854,164.559
1324224626854,164.616
1324224686854,164.310
1324224746854,164.574
1324224806854,164.406
1324224866854,164.326
1324224926854,164.819
1324224986854,164.979
1324225046854,164.631
1324225106854,164.209
1324225166854,164.542
1324225226854,164.696
1324225286854,164.719
1324225346854,165.039
1324225406854,164.494
1324225466854,164.967
1324225526854,164.901
1324225586854,164.469
1324225646854,164.831
1324225706854,164.941
1324225766854,164.662
1324225826854,164.937
1324225886854,164.995
1324225946854,164.985
1324226006854,164.957
1324226066854,164.984
1324226126854,165.008
1324226186854,165.140
1324226246854,165.006
1324226306854,164.989
1324226366854,165.068
1324226426854,165.002
1324226486854,164.883
1324226546854,165.038
1324226606854,165.125
1324226666854,164.883
1324226726854,165.264
1324226786854,165.112
1324226846854,165.209
1324226906854,164.859
1324226966854,165.081
1324227026854,165.021
1324227086854,165.185
1324227146854,164.964
1324227206854,165.491
1324227266854,164.934
1324227326854,165.113
1324227386854,165.435
1324227446854,165.128
1324227506854,165.170
1324227566854,165.134
1324227626866,165.007
1324227686866,165.070
1324227746866,165.265
1324227806866,165.169
1324227866866,165.248
1324227926866,164.828
1324227986866,165.199
1324228046866,165.264
1324228106866,165.120
1324228166866,165.183
1324228226866,165.116
1324228286866,165.641
1324228346866,165.272
1324228406866,165.300
1324228466866,164.942
1324228526866,165.587
1324228586866,165.125
1324228646866,165.229
1324228706866,165.193
1324228766866,165.507
1324228826866,165.336
1324228886866,165.382
1324228946866,165.414
1324229006866,165.435
1324229066866,165.146
1324229126866,165.479
1324229186866,165.240
1324229246866,165.321
1324229306866,165.249
1324229366866,165.362
1324229426866,165.255
1324229486866,165.344
1324229546866,165.523
1324229606866,165.518
1324229666866,165.390
1324229726866,165.296
1324229786866,165.378
1324229846866,165.168
1324229906866,165.463
1324229966866,165.179
1324230026866,165.831
1324230086866,165.578
1324230146866,165.207
1324230206866,165.503
1324230266866,165.342
1324230326866,165.590
1324230386866,165.799
1324230446866,165.905
1324230506866,165.506
1324230566866,165.628
1324230626866,165.817
1324230686866,166.036
1324230746866,165.434
1324230806866,165.648
1324230866866,165.867
1324230926866,165.613
1324230986866,165.469
1324231046866,166.109
1324231106866,165.911
1324231166866,166.034
1324231226877,166.121
1324231286877,166.028
1324231346877,166.162
1324231406877,166.206
1324231466877,165.907
1324231526877,165.873
1324231586877,165.859
1324231646877,165.766
1324231706877,165.931
1324231766877,165.873
1324231826877,166.083
1324231886877,166.127
1324231946877,165.825
1324232006877,165.909
1324232066877,165.820
1324232126877,166.046
1324232186877,165.807
1324232246877,165.743
1324232306877,165.906
1324232366877,166.105
1324232426877,166.135
1324232486877,165.847
1324232546877,165.488
1324232606877,166.090
1324232666877,165.973
1324232726877,165.676
1324232786877,165.652
1324232846877,165.558